作者enix09 (平)
看板PlayBaseball
標題[請益] 投球姿勢
時間Thu Dec 17 00:47:45 2009
小弟最近很想好好的練自己的投球姿勢
但是都沒什麼去系壘或者認識校隊同學也就只能慢慢摸索
所以特別拍一小段投球動作 希望大家可以多給點意見
看還有什麼地方需要再加強的 (應該不會砍掉重練吧Q__Q)
https://www.youtube.com/watch?v=xhjaUY86yn8
目前去可信度很高的測球速道怎麼丟MAX就是 105~110 km/hr
也想順便問一下怎麼在增加球速呢??
控球其實我覺得挺OK的 所以才想在變快...
以上 請鞭小力點 謝謝
--
※ 發信站: 批踢踢實業坊(ptt.cc)
◆ From: 140.114.210.73
1F:推 EEERRIICC:114棒球愛好者推.... 12/17 00:55
2F:推 KK650:這樣有110 的話 改了應該能破120 12/17 01:01
3F:推 nkmax24:我也想變快~~QQ 12/17 01:03
4F:推 kf282558:抱歉今天DEMO太久 也忘記打電話通知你 ˊˋ 12/17 01:21
5F:→ enix09:樓上 NO MIND~ 12/17 01:22
6F:推 adult1219:100以上? 哪測的 有嗎?= = 感覺沒用到什麼轉動的腰力 12/17 02:39
7F:推 ttogc:推熱血~科科 12/17 02:47
8F:推 st87176155:我相信有 因為我有朋友投球動作很像他 而且球速也超過 12/17 08:35
9F:→ st87176155:110 12/17 08:35
10F:推 tonyone:不可能100以上= = 12/17 09:25
11F:→ yangsj:看起來頂多90~100而以.. 12/17 10:57
12F:→ lrh18:抬肘揮臂壓腕感覺都做得沒到位 能有105up真是奇才... 12/17 11:15
13F:→ lucasfu:感覺手有點僵硬耶.. 12/17 11:30
14F:→ angusyu:奇才 12/17 12:07
15F:→ ARod622:哪側的呀 真神奇 12/17 12:52
16F:推 benothing:跨步太大 力量可能會被分散掉 小個一個到一個半腳掌看看 12/17 13:10
17F:推 adult1219:跨步還好吧 主要是後腳沒用力加上身體沒帶動手臂 12/17 13:43
18F:推 kevabc1:槍迷推 12/17 13:46
19F:推 nkmax24:竹北大聯盟??? 12/17 13:56
是的 我是去那邊測的
我跟我同學去都幾次都覺得那個還挺不歡樂的 跟我之前去台中大魯閣比差很多的說
那邊(舊館)有一個就是只有測速的地方 不是那種要打板子的那種
影片中就只有把平常動作丟出來也沒特別去催
20F:推 allen65535:你可以去跟物理系一起練 XD 12/17 13:58
21F:推 p4s800:林琨瀚教練上課的時候去跟著打也可以阿 12/17 14:06
22F:推 kf282558:清大棒球場晚上可以開燈 真好~ 12/17 14:48
23F:→ kf282558:跟原PO丟過 的確有100以上 我也是小嫩嫩 12/17 14:49
24F:→ kf282558:所以也不知道有甚麼比較好的建議 XD 12/17 14:50
25F:→ kf282558:我覺得抬腿跟重心移轉再改一下比較好 12/17 14:51
26F:推 p3013220132:這樣不可能105~110吧- -" 12/17 16:10
27F:→ zwwz:除了跨步問題 我認為原PO 可先試試上半身投球 12/17 17:07
28F:→ zwwz:看你丟球姿勢 你是不是不常拉遠投球? 手臂施力不協調 12/17 17:09
29F:→ zwwz:能110真的不簡單 練一下上120很簡單 12/17 17:09
30F:推 ttogc:練武奇才~多看比賽轉播,某天睡醒時你會發現,你開竅了! 12/17 18:39
還挺常看cpbl的說...
31F:推 p3013220132:嗯..姿勢正確很重要><" 有賢拜跟我說過姿勢正確輕輕 12/17 19:00
32F:→ p3013220132:丟可以上100...不知道此話的可信度ˊˋ" 12/17 19:01
33F:推 yamcomtw:還是要有一定的協調性才行啦.... @.@> 12/17 19:11
34F:→ lsz:原po動作很特別,請問實戰對打者的壓制力如何?好奇一問~ 12/17 19:17
其實沒有特別去實戰耶 但是跟朋友玩的時候挺常叫我去餵球 = "=
35F:推 gs1:應該沒有110吧 100有可能 12/17 19:56
36F:推 zseal:說不定上帝舔猴子的手時 口水滴到原PO手上 12/17 23:24
※ 編輯: enix09 來自: 140.114.210.73 (12/17 23:56)
37F:推 Resco:甩臂蠻快的 但不太協調 感覺拉開右臂太僵硬 12/18 02:19
38F:推 s9623091:某樓跟原PO丟過 如何知道100以上呢? 有帶測速槍嗎? 12/18 18:04
39F:推 veriloger:我覺得其他樓更屌 根本沒實際看過就知道球速了 12/18 23:39
40F:→ yangsj:以後有提到自己球速的還是附上證據好了,避免大家舌戰.. 12/19 00:23
41F:推 lsz:12/19(六)在靜宜的鳥籠幫大家測速~~歡迎鄰近球友來參加~ 12/19 00:50
42F:→ lsz:請找背號#46~~ ^_^ 12/19 00:50
43F:推 lsz:忘了說是早上九點,大概打到中午11點左右會走~~ 12/19 00:54
44F:推 mingdao:快不是重點 12/19 07:20
45F:→ Qoofate:這樣丟 用球數一多 手應該蠻痛的 12/20 23:27
46F:推 tigernaxo:感覺他跨步雖大 但是力量也有吃到 100up合理吧 12/29 21:12